Binghamton, NY

12:47 AM EST on November 21, 2019 (GMT -0500)
Binghamton Regional-Link

Weather History for KBGM - September, 2019

Change the Weather History Date:

Monday, September 16, 2019

  Actual Average Record
Temperature  
Mean Temperature 60 °F 60 °F  
Max Temperature 69 °F 68 °F 90 °F (1991)
Min Temperature 51 °F 51 °F 35 °F (1964)
Degree Days  
Heating Degree Days 5 6  
Month to date heating degree days 66 69  
Since 1 July heating degree days 103 132  
Cooling Degree Days 0 1  
Month to date cooling degree days 9 23  
Year to date cooling degree days 371 371  
Growing Degree Days 12 (Base 50)    
Moisture  
Dew Point 56 °F    
Average Humidity 78    
Maximum Humidity 100    
Minimum Humidity 56    
Precipitation  
Precipitation 0.03 in 0.13 in 3.45 in (1999)
Month to date precipitation 1.60 1.88  
Year to date precipitation 30.39 28.09  
Snow  
Snow 0.00 in 0.00 in 0.00 in (2002)
Month to date snowfall 0.0 0.0  
Since 1 July snowfall 0.0 0.0  
Since 1 September snowfall 0.0 0.0  
Snow Depth 0.00 in    
Sea Level Pressure  
Sea Level Pressure 30.10 in    
Wind  
Wind Speed 5 mph (NE)    
Max Wind Speed 10 mph    
Max Gust Speed 14 mph    
Visibility 6 miles    
Events Fog , Rain    
T = Trace of Precipitation, MM = Missing Value Source: NWS Daily Summary

Daily Weather History Graph

Daily Weather History Graph

Search for Another Location

Airport or City:

Astronomy

Sep. 16, 2019 Rise Set
Actual Time 6:44 AM EDT 7:12 PM EDT
Civil Twilight 6:16 AM EDT 7:40 PM EDT
Nautical Twilight 5:43 AM EDT 8:13 PM EDT
Astronomical Twilight 5:09 AM EDT 8:47 PM EDT
Moon 8:43 PM EDT (9/16) 8:51 AM EDT (9/16)
Length of Visible Light 13h 23m
Length of Day
12h 27m
Waning Gibbous, 94% of the Moon is Illuminated
Sep 16
Waning Gibbous
Sep 21
Last Quarter
Sep 28
New
Oct 5
First Quarter
Oct 13
Full

Hourly Weather History & Observations

Time (EDT) Temp. Dew Point Humidity Pressure Visibility Wind Dir Wind Speed Gust Speed Precip Events Conditions
12:53 AM 63.0 °F 57.9 °F 84% 30.10 in 10.0 mi North 4.6 mph - N/A   Overcast
1:53 AM 62.1 °F 57.9 °F 86% 30.09 in 10.0 mi NNE 3.5 mph - N/A   Overcast
2:53 AM 61.0 °F 59.0 °F 93% 30.09 in 6.0 mi Calm Calm - 0.00 in Rain Light Rain
3:22 AM 60.1 °F 59.0 °F 96% 30.11 in 5.0 mi West 3.5 mph - 0.00 in   Overcast
3:27 AM 60.1 °F 60.1 °F 100% 30.11 in 1.5 mi Calm Calm - 0.00 in Rain Light Rain
3:40 AM 60.1 °F 60.1 °F 100% 30.11 in 2.0 mi West 3.5 mph - 0.00 in Rain Light Rain
3:53 AM 60.1 °F 60.1 °F 100% 30.10 in 2.0 mi SW 3.5 mph - 0.00 in Rain Light Rain
4:10 AM 60.1 °F 59.0 °F 96% 30.10 in 4.0 mi Calm Calm - 0.00 in   Overcast
4:16 AM 60.1 °F 59.0 °F 96% 30.10 in 4.0 mi NE 3.5 mph - 0.00 in   Overcast
4:25 AM 60.1 °F 60.1 °F 100% 30.10 in 4.0 mi Calm Calm - 0.00 in   Overcast
4:53 AM 60.1 °F 59.0 °F 96% 30.08 in 3.0 mi East 3.5 mph - 0.00 in   Overcast
5:02 AM 60.1 °F 59.0 °F 96% 30.10 in 5.0 mi ENE 3.5 mph - N/A   Overcast
5:16 AM 60.1 °F 59.0 °F 96% 30.10 in 4.0 mi ENE 3.5 mph - N/A   Overcast
5:20 AM 60.1 °F 59.0 °F 96% 30.10 in 1.5 mi East 3.5 mph - N/A   Overcast
5:27 AM 60.1 °F 59.0 °F 96% 30.10 in 0.2 mi East 3.5 mph - N/A Fog Fog
5:34 AM 59.0 °F 57.9 °F 96% 30.10 in 1.0 mi NE 5.8 mph - N/A   Overcast
5:42 AM 60.1 °F 57.9 °F 93% 30.11 in 9.0 mi NNE 4.6 mph - N/A   Overcast
5:53 AM 60.1 °F 57.9 °F 93% 30.10 in 9.0 mi NNE 3.5 mph - N/A   Overcast
6:10 AM 60.1 °F 57.9 °F 93% 30.11 in 8.0 mi Calm Calm - N/A   Overcast
6:31 AM 59.0 °F 57.9 °F 96% 30.11 in 2.5 mi Calm Calm - N/A   Overcast
6:36 AM 59.0 °F 57.9 °F 96% 30.11 in 0.5 mi ENE 4.6 mph - N/A   Overcast
6:53 AM 59.0 °F 57.9 °F 96% 30.10 in 0.5 mi ENE 4.6 mph - N/A   Mist
7:05 AM 59.0 °F 57.9 °F 96% 30.11 in 0.2 mi ENE 4.6 mph - 0.00 in Fog , Rain Light Rain
7:51 AM 57.2 °F 57.2 °F 100% 30.11 in 1.0 mi ENE 6.9 mph - 0.00 in   Overcast
7:53 AM 57.9 °F 57.9 °F 100% 30.10 in 1.0 mi ENE 4.6 mph - 0.00 in   Overcast
8:14 AM 57.9 °F 57.9 °F 100% 30.12 in 3.0 mi ENE 4.6 mph - N/A   Overcast
9:48 AM 59.0 °F 57.2 °F 94% 30.13 in 1.8 mi ENE 6.9 mph - N/A   Overcast
9:53 AM 57.9 °F 57.9 °F 100% 30.12 in 0.5 mi ENE 6.9 mph - N/A   Overcast
10:33 AM 57.9 °F 57.0 °F 97% 30.13 in 1.0 mi NE 4.6 mph - 0.02 in Rain Light Rain
10:53 AM 57.9 °F 57.0 °F 97% 30.12 in 1.0 mi East 4.6 mph - 0.02 in   Overcast
11:53 AM 57.9 °F 55.9 °F 93% 30.12 in 2.0 mi ENE 6.9 mph - 0.01 in   Overcast
12:53 PM 57.9 °F 55.9 °F 93% 30.12 in 2.0 mi East 4.6 mph - N/A   Overcast
1:00 PM 57.9 °F 55.9 °F 93% 30.12 in 10.0 mi ESE 3.5 mph - N/A   Overcast
1:53 PM 62.1 °F 57.0 °F 84% 30.09 in 10.0 mi Calm Calm - N/A   Overcast
1:58 PM 62.1 °F 57.0 °F 84% 30.10 in 10.0 mi Calm Calm - N/A   Overcast
2:27 PM 64.0 °F 57.9 °F 80% 30.10 in 10.0 mi NNW 5.8 mph - N/A   Overcast
2:53 PM 66.0 °F 57.9 °F 75% 30.09 in 10.0 mi Variable 5.8 mph - N/A   Mostly Cloudy
3:15 PM 66.9 °F 57.0 °F 70% 30.09 in 10.0 mi North 6.9 mph - N/A   Mostly Cloudy
3:53 PM 69.1 °F 54.0 °F 58% 30.07 in 10.0 mi Variable 5.8 mph - N/A   Overcast
4:06 PM 68.0 °F 51.1 °F 55% 30.08 in 10.0 mi ENE 3.5 mph - N/A   Overcast
4:53 PM 69.1 °F 53.1 °F 57% 30.06 in 10.0 mi North 8.1 mph - N/A   Clear
5:53 PM 68.0 °F 54.0 °F 61% 30.07 in 10.0 mi NW 4.6 mph - N/A   Partly Cloudy
6:53 PM 64.0 °F 48.9 °F 58% 30.07 in 10.0 mi North 5.8 mph - N/A   Clear
7:53 PM 61.0 °F 46.0 °F 58% 30.09 in 10.0 mi North 5.8 mph - N/A   Partly Cloudy
8:53 PM 57.0 °F 46.9 °F 69% 30.10 in 10.0 mi NNE 6.9 mph - N/A   Partly Cloudy
9:53 PM 57.0 °F 46.9 °F 69% 30.12 in 10.0 mi NNE 9.2 mph - N/A   Scattered Clouds
10:53 PM 54.0 °F 48.0 °F 80% 30.13 in 10.0 mi NNE 6.9 mph - N/A   Clear
11:53 PM 53.1 °F 46.9 °F 80% 30.14 in 10.0 mi NNE 8.1 mph - N/A   Clear